Location: Del Oro Observatory
(38.3044°N, 104.8119°W)
Time: 17:09:18
(UTC-06:00)

Iridium 35 - Visible Passes

Search period start: 19 April 2018 00:00
Search period end: 29 April 2018 00:00
Orbit: 761 x 765 km, 86.4° (Epoch: 19 April)

Date Brightness Start Highest point End Pass type
(mag) Time Alt. Az. Time Alt. Az. Time Alt. Az.
19 Apr 7.4 00:25:59 19° N 00:25:59 19° N 00:27:27 10° N visible
19 Apr 7.2 23:48:04 20° NNE 23:48:04 20° NNE 23:49:38 10° N visible
20 Apr 7.2 23:10:09 16° NNE 23:10:09 16° NNE 23:11:22 10° NNE visible
21 Apr 7.5 00:50:17 16° NNW 00:50:17 16° NNW 00:51:33 10° NNW visible
21 Apr 7.5 22:32:13 10° NE 22:32:13 10° NE 22:32:14 10° NE visible
22 Apr 7.1 00:12:22 23° NNW 00:12:22 23° NNW 00:14:19 10° N visible
22 Apr 6.9 23:34:25 25° N 23:34:25 25° N 23:36:33 10° N visible
23 Apr 6.9 22:56:28 20° NE 22:56:28 20° NE 22:58:20 10° NNE visible
24 Apr 7.4 00:36:37 17° NW 00:36:37 17° NW 00:38:20 10° NNW visible
24 Apr 7.2 22:18:31 13° NE 22:18:31 13° NE 22:19:21 10° NE visible
24 Apr 6.8 23:58:40 27° NNW 23:58:40 27° NNW 00:01:09 10° N visible
25 Apr 6.4 23:20:41 32° N 23:20:41 32° N 23:23:27 10° N visible
26 Apr 6.5 22:42:43 26° NE 22:42:43 26° NE 22:45:17 10° NNE visible
27 Apr 7.2 00:22:51 19° NW 00:22:51 19° NW 00:25:05 10° NNW visible
27 Apr 6.9 22:04:43 15° ENE 22:04:43 15° ENE 22:06:26 10° NE visible
27 Apr 6.5 23:44:52 33° NW 23:44:52 33° NW 23:48:00 10° N visible
28 Apr 5.9 23:06:51 44° N 23:06:51 44° N 23:10:20 10° N visible
